DW1850 Weather Reports


time (UTC)temp
C
wind
direction
speed
KPH
gust
KPH
rain 1hr
cm
rain 24hr
cm
rain mn
cm
humidity
%
barometer
mb
20260905065959 26 133 0.0 9.7 0.00 0.00 0.00 84 1011.0
20260905062958 27 132 0.0 12.9 0.00 0.00 0.00 83 1010.9
20260905055957 27 128 0.0 12.9 0.00 0.00 0.00 81 1010.9
20260905052956 27 128 0.0 11.3 0.00 0.00 0.00 78 1010.9
20260905045956 27 128 0.0 12.9 0.00 0.00 0.00 77 1011.1
20260905042955 28 128 0.0 14.5 0.00 0.00 0.00 75 1011.0
20260905035954 28 126 0.0 9.7 0.00 0.00 0.00 73 1010.8
20260905032953 28 126 0.0 11.3 0.00 0.00 0.00 71 1010.7
20260905022952 29 127 0.0 9.7 0.00 0.00 0.00 71 1010.2
20260905015951 29 127 0.0 12.9 0.00 0.00 0.00 69 1010.0
20260905012950 30 127 0.0 14.5 0.00 0.00 0.00 67 1009.7
20260905005950 30 125 9.7 22.5 0.00 0.00 0.00 63 1009.3
20260905002948 31 119 3.2 22.5 0.00 0.00 0.00 61 1009.2
20260904235948 32 143 11.3 25.7 0.00 0.00 0.00 59 1008.8
20260904225946 33 125 0.0 20.9 0.00 0.00 0.00 46 1008.8
20260904222945 34 148 6.4 16.1 0.00 0.00 0.00 41 1009.1
20260904215945 34 132 12.9 19.3 0.00 0.00 0.00 43 1009.1
20260904212944 33 128 6.4 20.9 0.00 0.00 0.00 46 1009.5
20260904205943 34 103 1.6 24.1 0.00 0.00 0.00 47 1009.9
20260904202942 33 130 19.3 22.5 0.00 0.00 0.00 56 1010.0
20260904200012 33 118 1.6 20.9 0.00 0.00 0.00 60 1010.5
20260904192941 32 123 0.0 27.4 0.00 0.00 0.00 62 1010.6
20260904185940 31 121 12.9 22.5 0.00 0.00 0.00 64 1010.9
20260904175938 31 165 9.7 24.1 0.00 0.00 0.00 69 1011.6
20260904173008 30 184 0.0 14.5 0.00 0.00 0.00 71 1012.0
20260904170007 29 192 0.0 12.9 0.00 0.00 0.00 74 1012.0
20260904163006 28 191 3.2 11.3 0.00 0.00 0.00 77 1011.8
20260904160005 28 192 0.0 11.3 0.00 0.00 0.00 81 1011.6
20260904153005 27 191 9.7 14.5 0.00 0.00 0.00 85 1011.5
20260904150004 27 201 1.6 19.3 0.00 0.00 0.00 86 1011.2
20260904143003 27 162 0.0 12.9 0.00 0.00 0.00 87 1011.4
20260904140003 26 153 0.0 9.7 0.00 0.00 0.00 89 1011.4
20260904133002 26 153 0.0 0.0 0.00 0.00 0.00 90 1011.6
20260904123000 26 153 0.0 16.1 0.00 0.00 0.00 90 1011.1
20260904115959 26 157 0.0 16.1 0.00 0.00 0.00 90 1010.5
20260904105958 26 173 3.2 12.9 0.00 0.00 0.00 89 1010.2
20260904102957 26 177 0.0 11.3 0.00 0.00 0.00 88 1010.1
20260904095956 26 178 3.2 12.9 0.00 0.00 0.00 88 1010.0
20260904092955 26 179 0.0 9.7 0.00 0.00 0.00 88 1009.9
20260904085955 26 180 1.6 14.5 0.00 0.00 0.00 87 1009.9
20260904082954 26 182 3.2 14.5 0.00 0.00 0.00 86 1010.1
20260904075953 26 169 1.6 22.5 0.00 0.00 0.00 86 1010.1
20260904072952 26 171 9.7 19.3 0.00 0.00 0.00 85 1010.1